Other Public Products
Issued by NWS Grand Forks, ND

Home | Current Version | Previous Version | Text Only | Print | Product List | Glossary On
Versions: 1 2 3 4 5 6 7 8 9 10 11 12 13 14 15 16 17 18 19 20 21 22 23 24 25 26 27 28 29 30 31 32 33 34 35 36 37 38 39 40 41 42 43 44 45 46 47 48 49 50
648
FPUS83 KFGF 131131
OPUFGF
PRAIRIE TO PINES WEATHER ROUNDUP
NATIONAL WEATHER SERVICE EASTERN NORTH DAKOTA/GRAND FORKS ND
600 AM CDT TUE APR 13 2021

 **SATELLITE DATA USED TO AUGMENT SKY COVER AT AUTOMATED STATIONS**
 *****  WEATHER ACROSS EASTERN NORTH DAKOTA  *****

CITY           SKY/WX    TMP DP  RH WIND       PRES   REMARKS
GRAND FORKS    LGT SNOW  25  21  85 NW18      29.91S BLWGSNOWWCI  11
GRND FORKS AFB LGT SNOW  24  24  99 NW17G26   29.92F WCI  11
GRND FORKS NWS   N/A     24  23  95 NW9       29.87S WCI  15
BUXTON         NOT AVBL
DEVILS LAKE    LGT SNOW  21  19  93 NW17G24   30.00S FOG     WCI   7
FARGO          LGT SNOW  26  22  84 W16       29.95R FOG     WCI  14
WAHPETON ARPT    N/A    N/A N/A N/A MISG        N/A
$$

 *****  WEATHER ACROSS CENTRAL AND WESTERN NORTH DAKOTA  *****

CITY           SKY/WX    TMP DP  RH WIND       PRES   REMARKS
JAMESTOWN      CLOUDY    23  17  78 NW24G32   29.99S WCI   7
BISMARCK       LGT SNOW  24  17  74 NW12G26   30.10S WCI  13
MINOT          FLURRIES  23  18  81 NW20      30.10R WCI   8
MINOT AFB      FLURRIES  22  18  84 N16       30.09S WCI   8
GARRISON         N/A     20  17  88 NW16      30.10S WCI   6
WILLISTON      NOT AVBL
DICKINSON      FLURRIES  24  18  77 NW20G28   30.11F WCI  10
HETTINGER      MOCLDY   N/A N/A N/A NW21G30   30.16S
$$

 *****  OTHER OBSERVATIONS NORTHEAST NORTH DAKOTA  *****

CITY           SKY/WX    TMP DP  RH WIND       PRES   REMARKS
WALHALLA       MIX PCPN  23  23 100 NW20G28   29.97R WCI   8
LANGDON        LGT SNOW  21  23 100 N23       29.95R WCI   5
CAVALIER       MIX PCPN  25  23  93 NW22G30   29.94R WCI  10
GRAFTON        NOT AVBL
CANDO          LGT SNOW  21  21 100 NW22      30.03S VSB 1   WCI   5
FORT TOTTEN      N/A     22  19  87 N12       29.95S WCI  10
ROLLA          LGT SNOW  19  19 100 N29G36    30.01S WCI   1
RUGBY          FLURRIES  21  19  93 NW15      30.04S WCI   8
 ***** THE ABOVE OBSERVATIONS ARE NON NWS ARE NOT QUALITY
        CONTROLLED AND MAY MIS-REPORT RAIN FOR SNOW...
$$

 *****  OTHER OBSERVATIONS SOUTHEAST NORTH DAKOTA *****

CITY           SKY/WX    TMP DP  RH WIND       PRES   REMARKS
COOPERSTOWN    MIX PCPN  23  23 100 NW21G31   29.95F WCI   8
VALLEY CITY    FLURRIES  23  23 100 NW22      29.98S WCI   8
OAKES          CLOUDY    23  19  86 NW20G26   30.01S WCI   8
GWINNER        CLOUDY    25  25 100 NW22G31   29.99F WCI  10
SHEYENNE NWR     N/A     25  20  82 NW14      29.95S WCI  13
BUFFALO        NOT AVBL
WYNDMERE       NOT AVBL
 ***** THE ABOVE OBSERVATIONS ARE NON NWS ARE NOT QUALITY
       CONTROLLED AND MAY MIS-REPORT RAIN FOR SNOW...
$$

  *****  WEATHER ACROSS NORTHERN MINNESOTA  *****

CITY           SKY/WX    TMP DP  RH WIND       PRES   REMARKS
FLAG ISLAND    NOT AVBL
WARROAD        LGT SNOW  34  28  80 N9        29.80R
ROSEAU         LGT SNOW  34 N/A N/A N9        29.81R
HALLOCK        LGT SNOW  27  27 100 NW20G25   29.88S WCI  13
THF RVR FALLS  LGT SNOW  25  25 100 NW15      29.84S FOG     WCI  12
HALSTAD        NOT AVBL
FOSSTON        LGT SNOW  23  21  93 W15G22    29.84S WCI  10
BAUDETTE       LGT SNOW  33  33 100 N8        29.76R FOG
WASKISH        DRIZZLE   34  32  93 NW8       29.75S
CROOKSTON      LGT SNOW  25  23  93 NW21      29.89S WCI  10
$$
  *****  WEATHER ACROSS CENTRAL AND WEST MINNESOTA  *****

CITY           SKY/WX    TMP DP  RH WIND       PRES   REMARKS
BEMIDJI        LGT SNOW  25  23  93 W13       29.79S WCI  14
PARK RAPIDS    LGT SNOW  25  21  85 W20       29.83S FOG     WCI  11
WADENA         FLURRIES  25  21  86 W12G17    29.87S WCI  14
DETROIT LAKES  LGT SNOW  23  21  93 W14G21    29.88S FOG     WCI  11
MOORHEAD       LGT SNOW  27  21  80 W17       29.94F WCI  14
FERGUS FALLS   LGT SNOW  25  21  86 NW18      29.90S WCI  11
ELBOW LAKE     CLOUDY    26  23  89 NW18      29.95S WCI  12
MORRIS MN      FAIR      27  21  80 NW21G28     N/A  WCI  13
STAPLES        FLURRIES  28  25  86 W13       29.87S WCI  18
WHEATON        NOT AVBL
$$
  *****  WEATHER ELSEWHERE ACROSS MINNESOTA  *****

CITY           SKY/WX    TMP DP  RH WIND       PRES   REMARKS
DULUTH         FLURRIES  30  27  88 W16       29.79R WCI  19
INTRNTL FALLS  LGT SNOW  34  33  96 NE6       29.73R FOG
ELY            CLOUDY    34  34 100 SW7       29.74S
CLOQUET        FLURRIES  28  27  93 SW8       29.80R WCI  20
BRAINERD       LGT SNOW  28  24  85 W13       29.86R FOG     WCI  17
HIBBING        LGT SNOW  29  26  89 SW6       29.77R FOG     WCI  23
ALEXANDRIA     CLOUDY    26  21  81 W18G28    29.91S WCI  13
SAINT CLOUD    MOCLDY    29  22  75 W14       29.91S WCI  18
MINNEAPOLIS    CLOUDY    34  25  69 W17G31    29.95R WCI  23
$$

  *****  WEATHER ACROSS SOUTH DAKOTA  *****

CITY           SKY/WX    TMP DP  RH WIND       PRES   REMARKS
SIOUX FALLS    FAIR      32  21  64 W16G28    30.08R WCI  21
BROOKINGS      CLOUDY    28  22  78 NW20      30.03S WCI  15
WATERTOWN      CLOUDY    26  20  77 W21G31    29.99S WCI  12
HURON          CLOUDY    30  24  78 NW17      30.10S WCI  18
SISSETON         N/A     26  19  74 NW17      29.99S WCI  13
ABERDEEN       CLOUDY    26  16  65 NW21G32   30.07R WCI  12
MITCHELL       MOCLDY    30  21  69 W15       30.15R WCI  19
PIERRE         CLOUDY    28  18  66 NW23G32   30.16S WCI  14
MOBRIDGE       MOCLDY    28  19  69 NW24G33   30.09R WCI  14
RAPID CITY     CLOUDY    30  18  60 NW23G32   30.19F WCI  17
$$

  *****  SOME WEATHER IN NEARBY STATES *****

CITY           SKY/WX    TMP DP  RH WIND       PRES   REMARKS
GLASGOW MT     FLURRIES  28  23  81 NW15      30.35S WCI  16
GREAT FALLS MT FAIR      18  14  84 N7        30.43S WCI   9
CHEYENNE WY    CLOUDY    23  13  65 N14       30.19S WCI  11
SCOTTSBLUFF NE FAIR      24  15  68 W9        30.26R WCI  14
OMAHA NE       FAIR      38  24  57 W12       30.16S
DES MOINES IA  CLOUDY    38  26  62 NW12      30.12F
DAVENPORT IA   FAIR      38  30  73 W9        30.10R
CHICAGO IL     FAIR      43  32  65 W7        30.02R
EAU CLAIRE WI  CLOUDY    35  29  78 W12       29.93R
LA CROSSE WI   CLOUDY    40  28  62 W10       29.99S
$$

  *****  SOME NATIONAL WEATHER *****

CITY           SKY/WX    TMP DP  RH WIND       PRES   REMARKS
LA GUARDIA NY  MOCLDY    45  38  76 NE3       30.02R
RALEIGH NC     MOCLDY    50  44  80 CALM      30.02R
ATLANTA GA     FAIR      62  45  53 CALM      30.04R
NEW ORLEANS LA FAIR      67  63  87 E3        29.93S
OKLAHOMA CITY  MOCLDY    48  29  47 N12       30.11R
ALBUQUERQUE NM FAIR      44  21  40 E30G45    30.02R
SALT LAKE CITY FAIR      41  14  33 N6        29.92F
LOS ANGELES CA CLOUDY    57  51  80 SW6       29.88S
BOISE ID       FAIR      38  11  32 E3        30.02S
SEATTLE WA     FAIR      44  25  47 NE8       30.30R
$$

*** WEATHER ACROSS MANITOBA...SASKATCHEWAN AND ONTARIO ***
                ***ONTARIO***

CITY           SKY/WX    TMP DP  RH WIND       PRES   REMARKS
GERALDTON      LGT RAIN  37  37 100 NE9       29.82R
THUNDER BAY    CLOUDY    41  41 100 E6          N/A
SIOUX LOOKOUT  LGT SNOW  34  32  93 NE6       29.80R FOG
TORONTO        CLOUDY    46  45  93 NE3       30.02R
BIG TROUT LK   LGT SNOW  23  23 100 NE13G29   30.19F WCI  11
PICKLE LAKE    LGT SNOW  30  30 100 NE14G28   29.94R WCI  20
DRYDEN         LGT SNOW  32  32 100 NE14G20   29.77S WCI  22
KENORA         LGT SNOW  32  32 100 N12G18    29.81R FOG     WCI  23
$$
                *** MANITOBA***

CITY           SKY/WX    TMP DP  RH WIND       PRES   REMARKS
BRANDON        LGT SNOW  21  18  86 NE9       30.10R WCI  11
DAUPHIN        LGT SNOW  23  19  86 NE24G32   30.20R WCI   7
ISLAND LAKE    NOT AVBL
PILOT MOUND      N/A     19  18  93 N14G22      N/A  WCI   6
THE PAS        CLOUDY    25  16  68 N12G22    30.48S WCI  14
THOMPSON       MOCLDY    14   5  67 NE17G25   30.60R WCI  -3
WINNIPEG       LGT SNOW  25  23  93 N23G31    29.96R BLWGSNOWWCI  10
LYNN LAKE      CLEAR     10   3  72 NE6       30.69R WCI   1
CHURCHILL      CLEAR      3   0  85 N14       30.79R WCI -15
GILLAM         MOCLDY     9   1  72 NE23      30.63R WCI -12
$$
                ***SASKATCHEWAN***

CITY           SKY/WX    TMP DP  RH WIND       PRES   REMARKS
ESTEVAN        FLURRIES  23  18  80 N17G24    30.17R WCI   9
KINDERSLEY     CLOUDY    25  18  74 N9        30.51S WCI  15
LLOYDMINSTER   CLEAR     25  14  63 NE5       30.57S WCI  19
PRINCE ALBERT  MOCLDY    27  14  59 N8        30.57R WCI  18
REGINA         LGT SNOW  25  21  86 N26       30.29S BLWGSNOWWCI   9
YORKTON        LGT SNOW  23  21  93 N20G28    30.23R WC



USA.gov is the U.S. government's official web portal to all federal, state and local government web resources and services.